Weather History for KELP - October, 2012

Change the Weather History Date:

Thursday, October 4, 2012

  Actual Average Record
Temperature  
Mean Temperature 76 °F 69 °F  
Max Temperature 92 °F 82 °F 95 °F (2000)
Min Temperature 60 °F 57 °F 37 °F (1961)
Degree Days  
Heating Degree Days 0 1  
Month to date heating degree days 0 3  
Since 1 July heating degree days 6 7  
Cooling Degree Days 11 5  
Month to date cooling degree days 40 22  
Year to date cooling degree days 2752 2268  
Growing Degree Days 26 (Base 50)    
Moisture  
Dew Point 31 °F    
Average Humidity 25    
Maximum Humidity 39    
Minimum Humidity 10    
Precipitation  
Precipitation 0.00 in 0.02 in 0.65 in (1950)
Month to date precipitation 0.00 0.10  
Year to date precipitation 5.83 7.93  
Snow  
Snow 0.00 in - - ()
Month to date snowfall 0.0  
Since 1 July snowfall 0.0  
Since 1 September snowfall 0.0  
Snow Depth 0.00 in    
Sea Level Pressure  
Sea Level Pressure 29.93 in    
Wind  
Wind Speed 8 mph (SSW)    
Max Wind Speed 21 mph    
Max Gust Speed 26 mph    
Visibility 10 miles    
Events      
T = Trace of Precipitation, MM = Missing Value Source: NWS Daily Summary

Daily Weather History Graph

Daily Weather History Graph

Search for Another Location

Airport or City:

Trip Planner

Search our weather history database for the weather conditions in past years. The results will help you decide how hot, cold, wet, or windy it might be!

Date:

Astronomy

Oct. 04, 2012 Rise Set
Actual Time 7:01 AM MDT 6:45 PM MDT
Civil Twilight 6:37 AM MDT 7:10 PM MDT
Nautical Twilight 6:09 AM MDT 7:38 PM MDT
Astronomical Twilight 5:40 AM MDT 8:06 PM MDT
Moon 9:40 PM MDT 11:04 AM MDT
Length of Visible Light 12h 32m
Length of Day
11h 44m
Waning Gibbous, 81% of the Moon is Illuminated
Oct 4
Waning Gibbous
Oct 8
Last Quarter
Oct 15
New
Oct 21
First Quarter
Oct 29
Full

Hourly Weather History & Observations

Time (MDT) Temp. Dew Point Humidity Pressure Visibility Wind Dir Wind Speed Gust Speed Precip Events Conditions
12:51 AM 81.0 °F 26.1 °F 13% 29.85 in 10.0 mi Calm Calm - N/A   Clear
1:51 AM 75.9 °F 28.0 °F 17% 29.86 in 10.0 mi Variable 5.8 mph 16.1 mph N/A   Clear
2:51 AM 75.0 °F 28.0 °F 18% 29.85 in 10.0 mi South 8.1 mph - N/A   Clear
3:51 AM 75.0 °F 28.0 °F 18% 29.86 in 10.0 mi ESE 6.9 mph - N/A   Clear
4:51 AM 75.9 °F 27.0 °F 16% 29.87 in 10.0 mi Variable 3.5 mph - N/A   Clear
5:51 AM 64.9 °F 33.1 °F 31% 29.92 in 10.0 mi East 4.6 mph - N/A   Partly Cloudy
6:51 AM 61.0 °F 35.1 °F 38% 29.95 in 10.0 mi East 5.8 mph - N/A   Partly Cloudy
7:51 AM 63.0 °F 35.1 °F 35% 29.98 in 10.0 mi Calm Calm - N/A   Partly Cloudy
8:51 AM 69.8 °F 35.6 °F 28% 30.18 in 10.0 mi Calm Calm - N/A   Partly Cloudy
9:51 AM 77.0 °F 33.8 °F 21% 30.20 in 10.0 mi SW 4.6 mph - N/A   Partly Cloudy
10:51 AM 82.0 °F 30.9 °F 16% 29.97 in 10.0 mi WSW 3.5 mph - N/A   Partly Cloudy
11:51 AM 86.0 °F 30.9 °F 14% 29.97 in 10.0 mi NE 6.9 mph - N/A   Partly Cloudy
12:51 PM 88.0 °F 28.0 °F 12% 29.94 in 10.0 mi North 4.6 mph - N/A   Partly Cloudy
1:51 PM 89.1 °F 28.9 °F 12% 29.92 in 10.0 mi West 12.7 mph 17.3 mph N/A   Partly Cloudy
2:51 PM 91.0 °F 28.0 °F 10% 29.89 in 10.0 mi WSW 15.0 mph 23.0 mph N/A   Partly Cloudy
3:51 PM 91.0 °F 28.9 °F 11% 29.88 in 10.0 mi WSW 21.9 mph - N/A   Scattered Clouds
4:51 PM 91.0 °F 26.1 °F 10% 29.86 in 10.0 mi WSW 18.4 mph - N/A   Scattered Clouds
5:51 PM 88.0 °F 27.0 °F 11% 29.89 in 10.0 mi WSW 12.7 mph - N/A   Scattered Clouds
6:51 PM 84.9 °F 28.0 °F 13% 29.91 in 10.0 mi WSW 9.2 mph - N/A   Scattered Clouds
7:51 PM 82.0 °F 30.0 °F 15% 29.92 in 10.0 mi SW 5.8 mph - N/A   Scattered Clouds
8:51 PM 77.0 °F 33.8 °F 21% 30.11 in 10.0 mi South 5.8 mph - N/A   Scattered Clouds
9:51 PM 75.0 °F 36.0 °F 24% 29.91 in 10.0 mi SSE 8.1 mph - N/A   Scattered Clouds
10:51 PM 75.9 °F 34.0 °F 22% 29.90 in 10.0 mi SSW 8.1 mph - N/A   Scattered Clouds
11:51 PM 73.9 °F 34.0 °F 23% 29.89 in 10.0 mi South 6.9 mph - N/A   Scattered Clouds